Weather History for KHST - March, 2013

Change the Weather History Date:

Tuesday, March 19, 2013

  Actual Average Record
Temperature  
Mean Temperature 70 °F -  
Max Temperature 77 °F 80 °F 89 °F (1977)
Min Temperature 64 °F 58 °F 39 °F (1936)
Cooling Degree Days 6    
Growing Degree Days 20 (Base 50)    
Moisture  
Dew Point 68 °F    
Average Humidity 91    
Maximum Humidity 100    
Minimum Humidity 64    
Precipitation  
Precipitation 0.21 in - - ()
Sea Level Pressure  
Sea Level Pressure 29.96 in    
Wind  
Wind Speed 5 mph (SW)    
Max Wind Speed 13 mph    
Max Gust Speed -    
Visibility 10 miles    
Events Rain    
Averages and records for this station are not official NWS values.
T = Trace of Precipitation, MM = Missing Value Source: NWS Daily Summary

Daily Weather History Graph

Daily Weather History Graph

Search for Another Location

Airport or City:

Trip Planner

Search our weather history database for the weather conditions in past years. The results will help you decide how hot, cold, wet, or windy it might be!

Date:

Astronomy

Mar. 19, 2013 Rise Set
Actual Time 7:26 AM EDT 7:32 PM EDT
Civil Twilight 7:03 AM EDT 7:55 PM EDT
Nautical Twilight 6:36 AM EDT 8:21 PM EDT
Astronomical Twilight 6:09 AM EDT 8:48 PM EDT
Moon 12:47 PM EDT (3/19) 1:45 AM EDT (3/19)
Length of Visible Light 12h 51m
Length of Day
12h 06m
Waxing Crescent, 49% of the Moon is Illuminated
Mar 19
Waxing Crescent
Mar 19
First Quarter
Mar 27
Full
Apr 3
Last Quarter
Apr 10
New

Hourly Weather History & Observations

Time (EDT) Temp. Dew Point Humidity Pressure Visibility Wind Dir Wind Speed Gust Speed Precip Events Conditions
12:56 AM 71.6 °F 69.8 °F 94% 30.00 in 10.0 mi Calm Calm - N/A Rain Light Rain
12:58 AM 71.1 °F 69.6 °F 95% 30.01 in 10.0 mi Calm Calm - N/A   Light Drizzle
1:25 AM 71.6 °F 69.8 °F 94% 29.98 in 10.0 mi SE 3.5 mph - N/A   Clear
1:58 AM 71.2 °F 70.2 °F 96% 29.97 in 10.0 mi SSE 5.8 mph - 0.00 in   Clear
2:48 AM 71.6 °F 69.8 °F 94% 29.97 in 10.0 mi South 4.6 mph - N/A Rain Light Rain
2:58 AM 71.8 °F 70.5 °F 96% 29.98 in 7.0 mi WSW 5.8 mph - 0.01 in Rain Light Rain
3:03 AM 71.6 °F 69.8 °F 94% 29.97 in 6.0 mi WSW 4.6 mph - N/A Rain Rain
3:08 AM 71.6 °F 69.8 °F 94% 29.97 in 7.0 mi WSW 5.8 mph - N/A Rain Light Rain
3:13 AM 71.6 °F 69.8 °F 94% 29.97 in 9.0 mi SW 4.6 mph - N/A Rain Light Rain
3:53 AM 71.6 °F 71.6 °F 100% 29.95 in 5.0 mi Calm Calm - N/A Rain Light Rain
3:58 AM 71.6 °F 69.8 °F 94% 29.96 in 6.0 mi SW 2.3 mph - 0.04 in Rain Light Rain
4:12 AM 71.6 °F 69.8 °F 94% 29.94 in 7.0 mi South 5.8 mph - N/A   Partly Cloudy
4:26 AM 71.6 °F 69.8 °F 94% 29.95 in 10.0 mi SSW 12.7 mph - N/A Rain Light Rain
4:56 AM 69.8 °F 68.0 °F 94% 29.93 in 10.0 mi South 5.8 mph - N/A Rain Light Rain
4:58 AM 69.8 °F 68.0 °F 94% 29.94 in 10.0 mi South 5.8 mph - 0.08 in Rain Light Rain
5:03 AM 69.8 °F 68.0 °F 94% 29.93 in 10.0 mi South 6.9 mph - N/A Rain Light Rain
5:08 AM 69.8 °F 68.0 °F 94% 29.93 in 10.0 mi South 8.1 mph - N/A   Light Drizzle
5:09 AM 69.8 °F 68.0 °F 94% 29.93 in 10.0 mi South 8.1 mph - N/A   Mostly Cloudy
5:19 AM 69.8 °F 69.8 °F 100% 29.92 in 10.0 mi South 10.4 mph - N/A Rain Light Rain
5:41 AM 69.8 °F 69.8 °F 100% 29.92 in 10.0 mi South 11.5 mph - N/A   Clear
5:47 AM 69.8 °F 68.0 °F 94% 29.92 in 10.0 mi South 11.5 mph - N/A Rain Light Rain
5:58 AM 70.2 °F 68.7 °F 95% 29.93 in 10.0 mi South 9.2 mph - 0.01 in Rain Light Rain
6:18 AM 69.8 °F 68.0 °F 94% 29.92 in 10.0 mi South 10.4 mph - N/A Rain Light Rain
6:23 AM 69.8 °F 68.0 °F 94% 29.93 in 9.0 mi South 11.5 mph - N/A Rain Light Rain
6:43 AM 69.8 °F 68.0 °F 94% 29.93 in 10.0 mi South 11.5 mph - N/A Rain Light Rain
6:58 AM 69.3 °F 67.8 °F 95% 29.95 in 10.0 mi South 10.4 mph - 0.04 in Rain Light Rain
6:59 AM 69.8 °F 68.0 °F 94% 29.94 in 10.0 mi South 10.4 mph - N/A   Partly Cloudy
7:02 AM 69.8 °F 68.0 °F 94% 29.95 in 10.0 mi SSW 9.2 mph - N/A Rain Light Rain
7:30 AM 69.8 °F 68.0 °F 94% 29.96 in 10.0 mi SW 10.4 mph - N/A   Clear
7:33 AM 69.8 °F 68.0 °F 94% 29.96 in 10.0 mi SW 8.1 mph - N/A Rain Light Rain
7:58 AM 68.9 °F 67.5 °F 95% 29.98 in 9.0 mi SW 8.1 mph - 0.01 in Rain Light Rain
8:03 AM 68.0 °F 68.0 °F 100% 29.97 in 8.0 mi WSW 9.2 mph - N/A Rain Light Rain
8:08 AM 68.0 °F 68.0 °F 100% 29.97 in 9.0 mi WSW 6.9 mph - N/A Rain Light Rain
8:13 AM 68.0 °F 68.0 °F 100% 29.97 in 10.0 mi SW 5.8 mph - N/A Rain Light Rain
8:16 AM 68.0 °F 68.0 °F 100% 29.97 in 10.0 mi SSW 6.9 mph - N/A   Scattered Clouds
8:58 AM 69.6 °F 68.5 °F 96% 29.99 in 10.0 mi West 4.6 mph - 0.02 in   Scattered Clouds
9:58 AM 70.5 °F 68.5 °F 93% 30.00 in 10.0 mi NW 4.6 mph - N/A   Clear
10:58 AM 72.1 °F 68.4 °F 88% 30.01 in 10.0 mi SW 5.8 mph - N/A   Partly Cloudy
11:58 AM 72.9 °F 67.6 °F 84% 30.04 in 10.0 mi North 3.5 mph - N/A   Clear
12:58 PM 75.0 °F 66.6 °F 75% 30.04 in 10.0 mi WNW 6.9 mph - N/A   Partly Cloudy
1:58 PM 76.3 °F 65.1 °F 68% 30.02 in 10.0 mi WNW 8.1 mph - N/A   Clear
2:58 PM 76.6 °F 65.5 °F 68% 30.00 in 10.0 mi NW 8.1 mph - N/A   Partly Cloudy
3:58 PM 76.3 °F 63.5 °F 64% 29.97 in 10.0 mi WSW 6.9 mph - N/A   Clear
4:58 PM 76.1 °F 63.3 °F 64% 29.96 in 10.0 mi WNW 3.5 mph - N/A   Clear
5:58 PM 75.7 °F 63.0 °F 64% 29.94 in 10.0 mi WNW 2.3 mph - N/A   Clear
6:58 PM 75.7 °F 65.7 °F 71% 29.93 in 10.0 mi SW 4.6 mph - N/A   Clear
7:58 PM 70.5 °F 63.9 °F 79% 29.96 in 10.0 mi WSW 4.6 mph - N/A   Clear
8:58 PM 69.8 °F 64.0 °F 82% 29.98 in 10.0 mi WNW 3.5 mph - N/A   Clear
9:58 PM 66.2 °F 64.6 °F 94% 29.99 in 10.0 mi SW 3.5 mph - N/A   Clear
10:58 PM 65.1 °F 63.0 °F 93% 30.00 in 10.0 mi SW 2.3 mph - N/A   Clear
11:58 PM 64.6 °F 63.3 °F 96% 29.99 in 10.0 mi SW 4.6 mph - N/A   Clear